Showing default

SKYSAT C5, 41772

Orbit data source: Space-Track

SKYSAT C5, 41772 is a payload satellite owned by Terra Bella (US) in SSO that was launched on Fri, 16 Sep 2016 UTC via a VEGA launch vehicle from the French Guiana (FRGUI). Payload-class satellites include a variety of spacecraft equipped with specific instruments for various scientific and technological missions. These include communications satellites like Starlink; space stations such as the ISS; scientific satellites like the Hubble; Earth observation satellites from companies like Planet Labs, Umbra, and HawkEye 360; GPS; miniature CubeSats for education and research; and military/defense satellites.

Loading next visibility...
Identifier
41772, 2016-058C
Orbit
SSO
Country
Flag of USUS
Related business
Manufacturer
SS/Loral (MDA)
Mission
Operational Commercial Imaging
Bus & Motor
SKYSAT-GEN2, Unknown motor
Mass
110 kg wet, 110 kg dry
Launch date (UTC)
2016-09-16 (9 years ago)
Launch vehicle
VEGA
Launch site
French Guiana (FRGUI)
Object type
Payload
Rocket body
Debris
Shape & HBR
Box, 1.0 m
Radar Cross Section
0.888 m², Medium (>0.1 m² and < 1m²)

Expand to show TLE details & history
Last TLE update: 19 hours ago

TLE from 19 hours ago
0 SKYSAT C5
1 41772U 16058C   25287.85337848  .00011827  00000-0  33868-3 0  9991
2 41772  97.0862 333.8607 0002117 248.9373 111.1646 15.36069559506125
Epoch: 2025-10-14T20:28Z
TLE epoch observation values (Epoch: 2025-10-14T20:28:51.900Z)
Latitude
0.00002°
Longitude
3.0086°
Altitude
461.389 km
Speed
7.636 km/s
True Right ascension
22h 15m 26s
True Declination
0° 00' 00"
Sunlit
Object was in full shadow at epoch
Visualization orbit readout
Latitude
Unknown
Longitude
Unknown
Altitude
Unknown
Speed
Unknown
Apparent Right ascension
Unknown
Apparent Declination
Unknown
Sunlit
N/A
Visualization observer readout
Local Sidereal Time
10:14:38
Azimuth
Unknown
Elevation
Unknown
Doppler factor
Unknown
Orbital elements
Apogee altitude
456.123 km
Perigee altitude
453.23 km
Semi-major axis
6,832.813 km
Eccentricity
0.00021
Inclination
97.0862°
RAAN
333.8607°
Arg. of periapsis
248.9373°
True anomaly
111.18722°
Mean anomaly
111.1646°
Eccentric anomaly
111.17591°
Mean motion
3.84277 °/min
Orbital period
93.68 mins
BSTAR
0.00033868
Loading maneuver chart data...
Computing Atmospheric mass density...
Loading historical data...
Loading historical data...
Loading historical data...
Loading historical data...
Loading historical data...
Loading historical data...
Loading historical data...

Documentation

Showing up to 5 results
|